Time,TemperatureF,DewpointF,PressureIn,WindDirection,WindDirectionDegrees,WindSpeedMPH,WindSpeedGustMPH,Humidity,HourlyPrecipIn,Conditions,Clouds,dailyrainin,SoftwareType,DateUTC
2013-05-25 00:02:00,54.0,43.0,30.30,NNW,347,0.0,0.0,65,0.00,,,0.00,,2013-05-25 04:02:00,
2013-05-25 00:13:00,54.0,43.0,30.30,NNW,347,0.0,0.0,65,0.00,,,0.00,,2013-05-25 04:13:00,
2013-05-25 00:23:00,54.0,44.0,30.30,NNW,347,0.0,0.0,69,0.00,,,0.00,,2013-05-25 04:23:00,
2013-05-25 00:33:00,53.0,45.0,30.30,NNW,347,0.0,0.0,74,0.00,,,0.00,,2013-05-25 04:33:00,
2013-05-25 00:43:00,53.0,45.0,30.30,NNW,347,0.0,0.0,74,0.00,,,0.00,,2013-05-25 04:43:00,
2013-05-25 00:53:00,52.0,45.0,30.31,NNW,347,0.0,0.0,77,0.00,,,0.00,,2013-05-25 04:53:00,
2013-05-25 01:02:00,52.0,46.0,30.31,NNW,347,0.0,0.0,80,0.00,,,0.00,,2013-05-25 05:02:00,
2013-05-25 01:12:00,52.0,46.0,30.31,NNW,347,0.0,0.0,80,0.00,,,0.00,,2013-05-25 05:12:00,
2013-05-25 01:22:00,51.0,46.0,30.30,NNW,347,0.0,0.0,82,0.00,,,0.00,,2013-05-25 05:22:00,
2013-05-25 01:32:00,51.0,46.0,30.30,NNW,347,0.0,0.0,82,0.00,,,0.00,,2013-05-25 05:32:00,
2013-05-25 01:43:00,51.0,46.0,30.30,NNW,347,0.0,0.0,82,0.00,,,0.00,,2013-05-25 05:43:00,
2013-05-25 01:52:00,50.0,45.0,30.31,NNW,347,0.0,0.0,84,0.00,,,0.00,,2013-05-25 05:52:00,
2013-05-25 02:02:00,50.0,46.0,30.30,NNW,347,0.0,0.0,85,0.00,,,0.00,,2013-05-25 06:02:00,
2013-05-25 02:12:00,49.0,46.0,30.30,NNW,347,0.0,0.0,88,0.00,,,0.00,,2013-05-25 06:12:00,
2013-05-25 02:21:00,49.0,46.0,30.30,NNW,347,0.0,0.0,88,0.00,,,0.00,,2013-05-25 06:21:00,
2013-05-25 02:32:00,49.0,46.0,30.31,NNW,347,0.0,0.0,90,0.00,,,0.00,,2013-05-25 06:32:00,
2013-05-25 02:42:00,49.0,46.0,30.31,NNW,347,0.0,0.0,90,0.00,,,0.00,,2013-05-25 06:42:00,
2013-05-25 02:52:00,49.0,46.0,30.31,NNW,347,0.0,0.0,91,0.00,,,0.00,,2013-05-25 06:52:00,
2013-05-25 03:01:00,49.0,47.0,30.31,NNW,347,0.0,0.0,93,0.00,,,0.00,,2013-05-25 07:01:00,
2013-05-25 03:11:00,49.0,47.0,30.31,NNW,347,0.0,0.0,93,0.00,,,0.00,,2013-05-25 07:11:00,
2013-05-25 03:21:00,49.0,47.0,30.31,NNW,347,0.0,0.0,94,0.00,,,0.00,,2013-05-25 07:21:00,
2013-05-25 03:32:00,48.0,47.0,30.31,NNW,347,0.0,0.0,95,0.00,,,0.00,,2013-05-25 07:32:00,
2013-05-25 03:42:00,48.0,47.0,30.31,NNW,347,0.0,0.0,95,0.00,,,0.00,,2013-05-25 07:42:00,
2013-05-25 03:52:00,48.0,47.0,30.30,NW,308,1.0,0.0,96,0.00,,,0.00,,2013-05-25 07:52:00,
2013-05-25 04:02:00,48.0,47.0,30.29,NW,323,0.0,0.0,95,0.00,,,0.00,,2013-05-25 08:02:00,
2013-05-25 04:11:00,48.0,47.0,30.29,NW,323,0.0,0.0,95,0.00,,,0.00,,2013-05-25 08:11:00,
2013-05-25 04:22:00,48.0,47.0,30.29,NNW,346,0.0,0.0,95,0.00,,,0.00,,2013-05-25 08:22:00,
2013-05-25 04:32:00,48.0,47.0,30.29,NNW,346,0.0,0.0,95,0.00,,,0.00,,2013-05-25 08:32:00,
2013-05-25 04:42:00,47.0,46.0,30.29,NNW,346,0.0,0.0,95,0.00,,,0.00,,2013-05-25 08:42:00,
2013-05-25 04:52:00,47.0,46.0,30.29,NNW,346,0.0,0.0,95,0.00,,,0.00,,2013-05-25 08:52:00,
2013-05-25 05:02:00,47.0,45.0,30.29,NNW,346,0.0,0.0,94,0.00,,,0.00,,2013-05-25 09:02:00,
2013-05-25 05:11:00,47.0,45.0,30.29,NNW,346,0.0,0.0,94,0.00,,,0.00,,2013-05-25 09:11:00,
2013-05-25 05:21:00,48.0,46.0,30.29,NNW,346,0.0,0.0,92,0.00,,,0.00,,2013-05-25 09:21:00,
2013-05-25 05:33:00,47.0,45.0,30.29,NNW,346,0.0,0.0,91,0.00,,,0.00,,2013-05-25 09:33:00,
2013-05-25 05:43:00,47.0,45.0,30.29,NNW,346,0.0,0.0,91,0.00,,,0.00,,2013-05-25 09:43:00,
2013-05-25 05:53:00,47.0,45.0,30.29,NNW,346,0.0,0.0,92,0.00,,,0.00,,2013-05-25 09:53:00,
2013-05-25 06:03:00,47.0,46.0,30.29,WNW,291,0.0,0.0,95,0.00,,,0.00,,2013-05-25 10:03:00,
2013-05-25 06:12:00,47.0,46.0,30.29,WNW,291,0.0,0.0,95,0.00,,,0.00,,2013-05-25 10:12:00,
2013-05-25 06:23:00,46.0,45.0,30.29,NW,319,2.0,3.0,96,0.00,,,0.00,,2013-05-25 10:23:00,
2013-05-25 06:33:00,46.0,45.0,30.30,WNW,299,0.0,0.0,96,0.00,,,0.00,,2013-05-25 10:33:00,
2013-05-25 06:42:00,46.0,45.0,30.30,WNW,299,0.0,0.0,96,0.00,,,0.00,,2013-05-25 10:42:00,
2013-05-25 06:52:00,46.0,45.0,30.31,NW,318,0.0,0.0,96,0.00,,,0.00,,2013-05-25 10:52:00,
2013-05-25 07:02:00,47.0,45.0,30.32,NW,320,2.0,2.0,93,0.00,,,0.00,,2013-05-25 11:02:00,
2013-05-25 07:12:00,47.0,45.0,30.32,NW,320,2.0,2.0,93,0.00,,,0.00,,2013-05-25 11:12:00,
2013-05-25 07:22:00,47.0,45.0,30.32,NNW,328,0.0,0.0,92,0.00,,,0.00,,2013-05-25 11:22:00,
2013-05-25 07:32:00,48.0,46.0,30.31,NNW,328,0.0,0.0,92,0.00,,,0.00,,2013-05-25 11:32:00,
2013-05-25 07:42:00,48.0,46.0,30.31,NNW,328,0.0,0.0,92,0.00,,,0.00,,2013-05-25 11:42:00,
2013-05-25 07:52:00,48.0,46.0,30.31,NNW,328,0.0,0.0,93,0.00,,,0.00,,2013-05-25 11:52:00,
2013-05-25 08:01:00,49.0,47.0,30.32,NNW,328,0.0,0.0,94,0.00,,,0.00,,2013-05-25 12:01:00,
2013-05-25 08:12:00,49.0,47.0,30.32,NNW,328,0.0,0.0,94,0.00,,,0.00,,2013-05-25 12:12:00,
2013-05-25 08:22:00,49.0,47.0,30.32,NW,312,0.0,0.0,92,0.00,,,0.00,,2013-05-25 12:22:00,
2013-05-25 08:32:00,50.0,47.0,30.34,NW,312,0.0,0.0,90,0.00,,,0.00,,2013-05-25 12:32:00,
2013-05-25 08:42:00,50.0,47.0,30.34,NW,312,0.0,0.0,90,0.00,,,0.00,,2013-05-25 12:42:00,
2013-05-25 08:52:00,50.0,46.0,30.34,NW,308,0.0,0.0,87,0.00,,,0.00,,2013-05-25 12:52:00,
2013-05-25 09:02:00,51.0,47.0,30.34,NW,308,0.0,0.0,85,0.00,,,0.00,,2013-05-25 13:02:00,
2013-05-25 09:11:00,51.0,47.0,30.34,NW,308,0.0,0.0,85,0.00,,,0.00,,2013-05-25 13:11:00,
2013-05-25 09:22:00,52.0,46.0,30.35,NE,51,0.0,0.0,81,0.00,,,0.00,,2013-05-25 13:22:00,
2013-05-25 09:32:00,53.0,46.0,30.36,West,281,0.0,0.0,77,0.00,,,0.00,,2013-05-25 13:32:00,
2013-05-25 09:42:00,53.0,46.0,30.36,West,281,0.0,0.0,77,0.00,,,0.00,,2013-05-25 13:42:00,
2013-05-25 09:52:00,54.0,47.0,30.36,West,281,0.0,0.0,76,0.00,,,0.00,,2013-05-25 13:52:00,
2013-05-25 10:02:00,55.0,47.0,30.37,NNE,30,0.0,0.0,73,0.00,,,0.00,,2013-05-25 14:02:00,
2013-05-25 10:11:00,55.0,47.0,30.37,NNE,30,0.0,0.0,73,0.00,,,0.00,,2013-05-25 14:11:00,
2013-05-25 10:22:00,56.0,46.0,30.37,SE,136,0.0,0.0,69,0.00,,,0.00,,2013-05-25 14:22:00,
2013-05-25 10:32:00,57.0,47.0,30.37,SE,136,0.0,0.0,68,0.00,,,0.00,,2013-05-25 14:32:00,
2013-05-25 10:42:00,57.0,47.0,30.37,SE,136,0.0,0.0,68,0.00,,,0.00,,2013-05-25 14:42:00,
2013-05-25 10:52:00,58.0,48.0,30.36,SE,136,0.0,0.0,69,0.00,,,0.00,,2013-05-25 14:52:00,
2013-05-25 11:01:00,58.0,47.0,30.35,SW,215,0.0,0.0,67,0.00,,,0.00,,2013-05-25 15:01:00,
2013-05-25 11:11:00,58.0,47.0,30.35,SW,215,0.0,0.0,67,0.00,,,0.00,,2013-05-25 15:11:00,
2013-05-25 11:22:00,59.0,46.0,30.37,WSW,248,2.0,6.0,63,0.00,,,0.00,,2013-05-25 15:22:00,
2013-05-25 11:33:00,61.0,47.0,30.36,SW,214,0.0,6.0,59,0.00,,,0.00,,2013-05-25 15:33:00,
2013-05-25 11:43:00,61.0,47.0,30.36,SW,214,0.0,6.0,59,0.00,,,0.00,,2013-05-25 15:43:00,
2013-05-25 11:53:00,63.0,46.0,30.35,West,275,0.0,0.0,54,0.00,,,0.00,,2013-05-25 15:53:00,
2013-05-25 12:03:00,63.0,45.0,30.34,ESE,106,0.0,0.0,51,0.00,,,0.00,,2013-05-25 16:03:00,
2013-05-25 12:12:00,63.0,45.0,30.34,ESE,106,0.0,0.0,51,0.00,,,0.00,,2013-05-25 16:12:00,
2013-05-25 12:23:00,63.0,45.0,30.34,WSW,253,0.0,0.0,51,0.00,,,0.00,,2013-05-25 16:23:00,
2013-05-25 12:32:00,64.0,45.0,30.34,ESE,103,0.0,1.0,50,0.00,,,0.00,,2013-05-25 16:32:00,
2013-05-25 12:42:00,64.0,45.0,30.34,ESE,103,0.0,1.0,50,0.00,,,0.00,,2013-05-25 16:42:00,
2013-05-25 12:52:00,64.0,43.0,30.33,ENE,76,0.0,0.0,47,0.00,,,0.00,,2013-05-25 16:52:00,
2013-05-25 13:03:00,65.0,43.0,30.33,West,266,1.0,5.0,44,0.00,,,0.00,,2013-05-25 17:03:00,
2013-05-25 13:11:00,65.0,43.0,30.33,West,266,1.0,5.0,44,0.00,,,0.00,,2013-05-25 17:11:00,
2013-05-25 13:22:00,65.0,43.0,30.32,South,177,0.0,2.0,45,0.00,,,0.00,,2013-05-25 17:22:00,
2013-05-25 13:32:00,66.0,42.0,30.32,West,264,3.0,5.0,41,0.00,,,0.00,,2013-05-25 17:32:00,
2013-05-25 13:42:00,66.0,42.0,30.32,West,264,3.0,5.0,41,0.00,,,0.00,,2013-05-25 17:42:00,
2013-05-25 13:52:00,65.0,41.0,30.32,NW,309,0.0,0.0,41,0.00,,,0.00,,2013-05-25 17:52:00,
2013-05-25 14:02:00,66.0,41.0,30.32,NE,35,0.0,0.0,40,0.00,,,0.00,,2013-05-25 18:02:00,
2013-05-25 14:11:00,66.0,41.0,30.32,NE,35,0.0,0.0,40,0.00,,,0.00,,2013-05-25 18:11:00,
2013-05-25 14:21:00,66.0,42.0,30.32,WNW,284,1.0,5.0,42,0.00,,,0.00,,2013-05-25 18:21:00,
2013-05-25 14:32:00,65.0,39.0,30.33,NW,316,3.0,6.0,38,0.00,,,0.00,,2013-05-25 18:32:00,
2013-05-25 14:42:00,65.0,39.0,30.33,NW,316,3.0,6.0,38,0.00,,,0.00,,2013-05-25 18:42:00,
2013-05-25 14:52:00,64.0,39.0,30.33,WNW,298,3.0,6.0,40,0.00,,,0.00,,2013-05-25 18:52:00,
2013-05-25 15:02:00,65.0,42.0,30.32,WSW,256,2.0,3.0,43,0.00,,,0.00,,2013-05-25 19:02:00,
2013-05-25 15:11:00,65.0,42.0,30.32,WSW,256,2.0,3.0,43,0.00,,,0.00,,2013-05-25 19:11:00,
2013-05-25 15:22:00,65.0,41.0,30.32,WNW,291,3.0,7.0,42,0.00,,,0.00,,2013-05-25 19:22:00,
2013-05-25 15:32:00,66.0,42.0,30.32,West,279,3.0,8.0,41,0.00,,,0.00,,2013-05-25 19:32:00,
2013-05-25 15:42:00,66.0,42.0,30.32,West,279,3.0,8.0,41,0.00,,,0.00,,2013-05-25 19:42:00,
2013-05-25 15:52:00,66.0,42.0,30.31,West,264,2.0,3.0,41,0.00,,,0.00,,2013-05-25 19:52:00,
2013-05-25 16:02:00,66.0,43.0,30.30,NW,309,0.0,3.0,43,0.00,,,0.00,,2013-05-25 20:02:00,
2013-05-25 16:11:00,66.0,43.0,30.30,NW,309,0.0,3.0,43,0.00,,,0.00,,2013-05-25 20:11:00,
2013-05-25 16:22:00,66.0,43.0,30.29,WNW,294,3.0,6.0,43,0.00,,,0.00,,2013-05-25 20:22:00,
2013-05-25 16:32:00,66.0,43.0,30.29,NNW,333,0.0,0.0,43,0.00,,,0.00,,2013-05-25 20:32:00,
2013-05-25 16:42:00,66.0,43.0,30.29,NNW,333,0.0,0.0,43,0.00,,,0.00,,2013-05-25 20:42:00,
2013-05-25 16:52:00,66.0,42.0,30.28,NW,314,3.0,6.0,42,0.00,,,0.00,,2013-05-25 20:52:00,
2013-05-25 17:02:00,65.0,41.0,30.28,SW,225,1.0,2.0,42,0.00,,,0.00,,2013-05-25 21:02:00,
2013-05-25 17:11:00,65.0,41.0,30.28,SW,225,1.0,2.0,42,0.00,,,0.00,,2013-05-25 21:11:00,
2013-05-25 17:21:00,66.0,44.0,30.27,West,274,0.0,0.0,45,0.00,,,0.00,,2013-05-25 21:21:00,
2013-05-25 17:33:00,65.0,44.0,30.27,WNW,294,0.0,0.0,47,0.00,,,0.00,,2013-05-25 21:33:00,
2013-05-25 17:43:00,65.0,44.0,30.27,WNW,294,0.0,0.0,47,0.00,,,0.00,,2013-05-25 21:43:00,
2013-05-25 17:53:00,64.0,47.0,30.28,NW,307,0.0,5.0,53,0.00,,,0.00,,2013-05-25 21:53:00,
2013-05-25 18:03:00,63.0,48.0,30.27,WSW,253,0.0,0.0,57,0.00,,,0.00,,2013-05-25 22:03:00,
2013-05-25 18:13:00,63.0,48.0,30.27,WSW,253,0.0,0.0,57,0.00,,,0.00,,2013-05-25 22:13:00,
2013-05-25 18:23:00,62.0,49.0,30.26,WSW,244,0.0,0.0,62,0.00,,,0.00,,2013-05-25 22:23:00,
2013-05-25 18:32:00,61.0,50.0,30.26,SW,220,0.0,2.0,68,0.00,,,0.00,,2013-05-25 22:32:00,
2013-05-25 18:42:00,61.0,50.0,30.26,SW,220,0.0,2.0,68,0.00,,,0.00,,2013-05-25 22:42:00,
2013-05-25 18:52:00,61.0,49.0,30.24,West,278,1.0,6.0,64,0.00,,,0.00,,2013-05-25 22:52:00,
2013-05-25 19:02:00,61.0,48.0,30.21,WSW,247,0.0,0.0,62,0.00,,,0.00,,2013-05-25 23:02:00,
2013-05-25 19:12:00,61.0,48.0,30.21,WSW,247,0.0,0.0,62,0.00,,,0.00,,2013-05-25 23:12:00,
2013-05-25 19:22:00,61.0,48.0,30.21,WSW,247,0.0,0.0,62,0.00,,,0.00,,2013-05-25 23:22:00,
2013-05-25 19:32:00,62.0,47.0,30.22,WSW,247,0.0,0.0,59,0.00,,,0.00,,2013-05-25 23:32:00,
2013-05-25 19:42:00,62.0,48.0,30.23,WSW,247,0.0,0.0,60,0.00,,,0.00,,2013-05-25 23:42:00,
2013-05-25 19:52:00,62.0,48.0,30.23,WSW,247,0.0,0.0,60,0.00,,,0.00,,2013-05-25 23:52:00,
2013-05-25 20:02:00,61.0,47.0,30.24,WSW,247,0.0,0.0,61,0.00,,,0.00,,2013-05-26 00:02:00,
2013-05-25 20:11:00,61.0,47.0,30.24,WSW,247,0.0,0.0,61,0.00,,,0.00,,2013-05-26 00:11:00,
2013-05-25 20:22:00,61.0,49.0,30.24,WNW,294,0.0,3.0,64,0.00,,,0.00,,2013-05-26 00:22:00,
2013-05-25 20:31:00,60.0,48.0,30.24,NW,320,1.0,1.0,65,0.00,,,0.00,,2013-05-26 00:31:00,
2013-05-25 20:42:00,60.0,48.0,30.24,NW,320,1.0,1.0,65,0.00,,,0.00,,2013-05-26 00:42:00,
2013-05-25 20:53:00,60.0,48.0,30.24,NNW,329,0.0,0.0,65,0.00,,,0.00,,2013-05-26 00:53:00,
2013-05-25 21:01:00,60.0,49.0,30.24,NNW,329,2.0,3.0,66,0.00,,,0.00,,2013-05-26 01:01:00,
2013-05-25 21:11:00,60.0,49.0,30.24,NNW,329,2.0,3.0,66,0.00,,,0.00,,2013-05-26 01:11:00,
2013-05-25 21:21:00,59.0,51.0,30.26,NNW,329,2.0,5.0,74,0.00,,,0.00,,2013-05-26 01:21:00,
2013-05-25 21:32:00,58.0,50.0,30.27,North,4,1.0,3.0,74,0.00,,,0.00,,2013-05-26 01:32:00,
2013-05-25 21:42:00,58.0,50.0,30.27,North,4,1.0,3.0,74,0.00,,,0.00,,2013-05-26 01:42:00,
2013-05-25 21:53:00,58.0,50.0,30.27,NNW,340,2.0,3.0,76,0.10,,,0.10,,2013-05-26 01:53:00,
2013-05-25 22:02:00,57.0,50.0,30.28,NW,321,3.0,5.0,78,0.10,,,0.10,,2013-05-26 02:02:00,
2013-05-25 22:11:00,57.0,50.0,30.28,NW,321,3.0,5.0,78,0.10,,,0.10,,2013-05-26 02:11:00,
2013-05-25 22:21:00,57.0,50.0,30.28,NNW,327,2.0,2.0,78,0.10,,,0.10,,2013-05-26 02:21:00,
2013-05-25 22:32:00,57.0,51.0,30.28,West,281,0.0,0.0,81,0.10,,,0.10,,2013-05-26 02:32:00,
2013-05-25 22:42:00,57.0,51.0,30.28,West,281,0.0,0.0,81,0.10,,,0.10,,2013-05-26 02:42:00,
2013-05-25 22:52:00,56.0,51.0,30.28,West,275,0.0,2.0,84,0.00,,,0.10,,2013-05-26 02:52:00,
2013-05-25 23:01:00,55.0,51.0,30.29,NW,310,2.0,5.0,85,0.00,,,0.10,,2013-05-26 03:01:00,
2013-05-25 23:11:00,55.0,51.0,30.29,NW,310,2.0,5.0,85,0.00,,,0.10,,2013-05-26 03:11:00,
2013-05-25 23:22:00,55.0,51.0,30.30,NW,319,1.0,3.0,86,0.00,,,0.10,,2013-05-26 03:22:00,
2013-05-25 23:33:00,55.0,51.0,30.30,West,270,0.0,0.0,86,0.00,,,0.10,,2013-05-26 03:33:00,
2013-05-25 23:43:00,55.0,51.0,30.30,West,270,0.0,0.0,86,0.00,,,0.10,,2013-05-26 03:43:00,
2013-05-25 23:53:00,54.0,50.0,30.30,NNW,328,2.0,3.0,86,0.10,,,0.20,,2013-05-26 03:53:00,